Lapse_Rate
5.7 3.7 3.9 3.6 3.0 3.5 3.7 3.5 3.2 3.4 3.4 3.4 4.9 5.3 5.0 5.5 5.7 5.5 5.7 5.9 5.5 5.4 5.7 5.9 6.2 6.1 6.0
4.0 4.8 4.6 4.3 3.6 2.6 2.7 3.3 4.7 3.0 3.2 3.5 4.1 4.3 4.9 4.9 5.2 4.9 5.0 5.6 5.6 5.4 5.6 5.6 6.2 6.3 6.3
2.9 5.1 5.1 4.2 3.6 2.9 3.5 3.3 4.2 3.6 2.8 3.7 3.9 4.2 4.0 4.3 4.4 4.7 4.3 5.2 5.6 5.8 5.8 5.9 5.8 6.2 6.2
6.1 2.9 5.6 4.5 4.6 3.5 4.1 3.1 3.4 1.7 2.8 3.7 3.7 3.3 3.5 3.9 4.0 4.1 4.3 4.9 4.7 5.0 4.9 5.4 5.5 5.5 5.6
6.0 4.7 3.2 5.1 5.1 4.7 5.2 4.7 3.5 3.2 3.3 3.0 3.1 3.4 3.8 3.6 3.8 3.6 4.0 3.8 4.3 4.2 4.3 4.6 5.0 5.1 5.2
5.6 5.4 2.6 2.9 4.7 4.8 5.1 5.6 5.3 3.2 3.8 3.4 3.8 4.1 4.1 3.8 4.1 3.3 3.0 3.6 3.8 4.0 4.3 4.6 4.9 4.8 5.0
6.3 5.3 3.2 2.9 4.1 4.5 5.5 5.4 6.2 3.8 4.6 4.3 2.8 4.5 3.8 3.3 3.3 3.0 3.1 3.7 3.8 3.8 4.0 4.0 4.2 4.5 4.3
6.5 4.2 3.7 3.0 4.2 3.2 5.5 5.2 3.3 2.9 4.3 5.8 2.8 3.9 3.3 2.1 1.9 2.1 2.4 2.8 3.2 3.4 3.2 3.3 3.6 3.5 3.3
7.6 3.8 3.3 3.5 4.9 4.9 3.9 5.7 4.5 2.4 4.2 5.4 1.7 3.9 2.4 1.8 1.2 1.2 1.8 2.4 2.6 2.8 2.9 3.0 2.6 2.7 2.2
7.2 6.3 4.2 4.0 3.6 5.3 4.7 5.5 4.6 0.9 3.2 2.1 -0.3 -0.3 0.2 -2.2 -0.7 1.0 1.6 1.8 2.3 2.4 2.4 2.4 2.0 0.2 -0.2
7.5 7.5 7.0 6.7 5.8 4.5 3.8 4.6 5.0 0.0 0.7 0.4 -2.0 -2.7 -1.9 -2.6 -4.2 -2.2 1.1 0.3 0.7 1.6 1.7 1.3 0.7 0.2 -1.6
7.8 7.6 7.2 7.0 5.4 4.0 4.0 4.8 5.6 5.1 2.1 1.7 -3.0 -0.7 -2.3 -1.9 -2.5 -4.8 -3.4 -2.5 -0.2 -0.7 -1.2 0.1 0.0 -0.0 -0.4
7.6 7.7 7.5 6.5 6.0 6.4 3.2 4.7 5.4 4.3 3.2 2.4 -1.1 -2.9 -0.1 -2.1 -3.1 -4.5 -2.5 -3.6 -3.4 -2.1 -2.2 -2.0 -2.7 -2.0 -1.6
7.3 7.4 6.7 6.8 6.5 6.5 5.6 5.1 3.2 -1.6 -3.2 -1.4 -1.9 -0.4 -2.3 -1.6 -2.9 -2.5 -4.3 -2.5 -3.3 -2.4 -2.3 -3.6 -3.3 -2.1 -2.6
7.1 6.8 6.7 6.6 7.0 6.9 5.4 4.4 3.0 0.4 -1.2 -3.4 -3.9 -3.4 -2.6 -2.4 -1.4 -0.4 -1.9 -3.4 -2.3 -3.1 -2.6 -2.9 -3.3 -2.4 -2.3
7.0 6.9 6.6 6.5 6.7 6.8 6.3 4.1 4.3 3.1 -0.3 -2.8 -2.0 -2.0 -2.3 -2.4 -2.4 -1.0 -0.8 -1.6 -3.0 -3.1 -1.9 -1.5 -2.0 -2.4 -2.3
7.4 7.5 6.9 6.3 6.3 6.7 6.0 5.5 4.5 2.7 0.5 -1.3 0.1 1.4 1.7 1.4 -3.2 -1.9 -1.8 -2.5 -2.9 -2.4 -1.5 -2.2 -1.5 -2.4 -2.3
Wind_Speed
6 5 14 14 10 16 20 20 23 30 28 25 26 27 33 34 32 31 33 30 30 30 30 29 28 27 27
8 8 10 17 14 15 11 18 19 25 34 33 31 31 32 34 32 32 33 32 30 31 30 29 28 28 28
7 10 10 11 12 11 13 12 15 25 34 34 34 31 31 32 34 33 33 34 34 32 31 29 28 28 28
9 6 9 10 11 11 10 7 9 5 16 22 25 27 29 31 33 33 33 35 32 33 33 33 32 30 29
9 7 8 6 14 10 11 10 9 8 9 8 9 11 18 25 27 36 35 32 32 30 30 31 32 32 29
8 9 10 10 10 10 10 9 9 8 10 9 9 11 10 18 26 27 30 31 31 30 30 30 30 29 28
13 11 11 12 11 13 15 13 15 7 13 11 7 10 9 14 22 26 29 29 29 30 31 29 27 26 25
15 14 11 11 11 10 12 17 3 5 13 10 8 11 8 10 22 27 30 29 29 29 27 26 26 24 23
24 23 22 27 17 8 10 14 8 3 11 8 4 7 5 7 10 22 25 27 27 25 24 24 23 21 16
11 14 16 19 23 13 9 11 9 3 7 7 3 4 2 0 3 9 12 18 21 22 22 22 22 14 8
12 10 10 11 11 11 11 12 8 2 8 6 3 3 3 3 1 2 8 6 8 15 21 24 24 18 7
10 10 11 10 11 10 13 11 13 14 14 15 5 7 5 2 3 1 2 3 9 7 8 16 16 13 10
12 12 11 10 10 9 11 13 15 9 14 12 8 9 9 5 5 4 5 1 2 8 7 8 6 9 7
14 13 10 7 9 8 9 8 8 1 3 6 12 15 5 5 5 8 5 6 6 5 7 3 5 7 4
12 12 12 11 11 10 9 7 8 6 6 2 6 7 5 11 4 10 10 4 10 9 6 5 3 4 5
12 12 12 13 12 11 11 7 12 12 7 4 7 4 3 4 8 10 7 7 9 10 7 7 5 3 7
12 13 13 13 15 12 11 10 11 9 10 10 11 10 6 3 1 8 9 7 10 8 7 2 4 5 5
Wind_Direction
218 181 184 191 194 196 196 202 203 195 195 209 203 198 192 194 199 198 196 200 199 202 207 210 212 215 219
305 188 194 198 189 187 196 200 208 208 205 205 207 206 197 194 200 198 196 199 200 204 210 212 215 218 221
288 287 199 186 186 188 192 198 194 201 205 202 201 197 197 196 198 200 198 198 204 206 209 210 215 220 226
290 278 240 188 192 184 193 191 194 173 191 197 199 193 193 198 198 200 198 203 204 209 213 216 219 221 226
278 272 293 190 190 188 200 188 195 191 192 194 190 193 202 198 201 199 204 203 207 210 212 216 221 226 227
274 267 270 305 193 193 194 187 191 196 186 194 185 197 201 201 205 200 198 200 204 207 210 213 219 221 224
266 261 272 272 300 194 199 203 205 170 187 195 181 205 194 199 199 194 196 202 206 208 211 211 212 217 220
252 257 263 275 281 290 241 197 157 153 181 197 178 205 184 192 199 193 195 199 206 209 210 208 211 215 216
254 263 265 275 264 271 288 196 175 160 188 178 174 178 182 185 196 197 195 197 200 201 203 205 203 204 200
267 265 257 258 259 253 263 284 172 136 182 147 136 142 168 287 160 182 198 199 195 194 193 193 181 158 152
263 264 256 254 241 234 237 241 217 172 178 146 137 136 97 128 118 155 179 171 171 181 175 169 167 167 157
250 246 251 246 243 234 230 236 252 217 178 176 143 160 130 142 156 137 65 123 154 149 145 152 157 164 160
253 253 240 245 255 248 233 237 250 213 181 184 159 155 164 141 159 162 132 166 141 147 145 155 157 162 142
248 254 255 253 240 253 234 216 213 187 23 197 160 161 135 144 141 154 149 156 157 158 150 122 139 173 153
238 244 244 240 241 230 234 195 199 175 157 54 73 88 86 152 128 162 159 140 169 153 148 155 164 169 166
241 237 237 236 236 229 223 195 203 194 169 149 138 100 65 39 40 155 162 156 155 159 150 155 160 183 164
239 233 232 232 233 223 218 211 201 190 178 155 168 164 156 142 46 24 155 145 147 155 158 124 150 166 158